Flight Track Log - Related Links

Times and Time Zones

All times are in EDT time to prevent confusion due to time zone crossing. See the SWA3497 flight status page for this flight to view local times or setup timezone preferences in your user account.

Time Position Orientation Groundspeed Altitude Reporting Facility
EDT Latitude Longitude Course Direction KTS MPH feet Rate Location/Type
Tue 02:04:34 PM 38.1339 -85.7292 172° South 171 197 2,500  Level FAA TRACON SMA TRACON (SMA)
Tue 02:04:55 PM 38.1178 -85.7214 159° South 196 226 3,400 3,150 Climbing FAA TRACON SMA TRACON (SMA)
Tue 02:05:14 PM 38.0969 -85.7108 158° South 211 243 4,600 3,150 Climbing FAA TRACON SMA TRACON (SMA)
Tue 02:05:35 PM 38.0864 -85.6897 122° Southeast 234 269 5,500 2,195 Climbing FAA TRACON SMA TRACON (SMA)
Tue 02:05:55 PM 38.0883 -85.6533 86° East 267 307 6,100 2,250 Climbing FAA TRACON SMA TRACON (SMA)
Tue 02:06:15 PM 38.0911 -85.6214 84° East 291 335 7,000 3,077 Climbing FAA TRACON SMA TRACON (SMA)
Tue 02:06:34 PM 38.0939 -85.5883 84° East 302 348 8,100 3,450 Climbing FAA TRACON SMA TRACON (SMA)
Tue 02:06:55 PM 38.0953 -85.5467 88° East 309 356 9,300 3,000 Climbing FAA TRACON SMA TRACON (SMA)
Tue 02:07:14 PM 38.0953 -85.5122 90° East 315 362 10,100 2,769 Climbing FAA TRACON SMA TRACON (SMA)
Tue 02:07:34 PM 38.0981 -85.4772 84° East 323 372 11,100 3,512 Climbing FAA TRACON SMA TRACON (SMA)
Tue 02:07:55 PM 38.1019 -85.4303 84° East 343 395 12,500 3,900 Climbing FAA TRACON SMA TRACON (SMA)
Tue 02:08:14 PM 38.1053 -85.3914 84° East 356 410 13,700 3,600 Climbing FAA TRACON SMA TRACON (SMA)
Tue 02:08:35 PM 38.1086 -85.3522 84° East 364 419 14,900 3,900 Climbing FAA TRACON SMA TRACON (SMA)
Tue 02:08:54 PM 38.1131 -85.3014 84° East 373 429 16,300 3,900 Climbing FAA TRACON SMA TRACON (SMA)
Tue 02:09:15 PM 38.1164 -85.2606 84° East 379 436 17,500 3,073 Climbing FAA TRACON SMA TRACON (SMA)
Tue 02:09:35 PM 38.1197 -85.2186 84° East 387 445 18,400 3,231 Climbing FAA TRACON SMA TRACON (SMA)
Tue 02:09:54 PM 38.1239 -85.1644 84° East 398 458 19,600 3,300 Climbing FAA TRACON SMA TRACON (SMA)
Tue 02:10:15 PM 38.1281 -85.1206 83° East 406 467 20,600 2,850 Climbing FAA TRACON SMA TRACON (SMA)
Tue 02:10:34 PM 38.1314 -85.0756 85° East 412 474 21,500 3,150 Climbing FAA TRACON SMA TRACON (SMA)
Tue 02:10:55 PM 38.1364 -85.0192 84° East 420 483 22,700 2,195 Climbing FAA TRACON SMA TRACON (SMA)
Tue 02:11:15 PM 38.1406 -84.9733 83° East 424 488 23,000 462 Climbing FAA TRACON SMA TRACON (SMA)
Tue 02:11:34 PM 38.1436 -84.9272 85° East 425 489 23,000 769 Level FAA TRACON SMA TRACON (SMA)
Tue 02:11:54 PM 38.1489 -84.8703 83° East 424 488 23,500 2,049 Climbing FAA TRACON SMA TRACON (SMA)
Tue 02:12:15 PM 38.1522 -84.8242 85° East 425 489 24,400 2,550 Climbing FAA TRACON SMA TRACON (SMA)
Tue 02:12:34 PM 38.1564 -84.7778 83° East 428 493 25,200 2,700 Climbing FAA TRACON SMA TRACON (SMA)
Tue 02:12:55 PM 38.1619 -84.7183 83° East 438 504 26,200 2,550 Climbing FAA TRACON SMA TRACON (SMA)
Tue 02:13:14 PM 38.1658 -84.6700 84° East 444 511 26,900 2,154 Climbing FAA TRACON SMA TRACON (SMA)
Tue 02:13:34 PM 38.1689 -84.6211 85° East 451 519 27,600 2,195 Climbing FAA TRACON SMA TRACON (SMA)
Tue 02:13:55 PM 38.1750 -84.5592 83° East 458 527 28,400 2,400 Climbing FAA TRACON SMA TRACON (SMA)
Tue 02:14:14 PM 38.1789 -84.5086 84° East 464 534 29,200 2,250 Climbing FAA TRACON SMA TRACON (SMA)
Tue 02:14:35 PM 38.1833 -84.4581 84° East 468 539 29,900 1,846 Climbing FAA TRACON SMA TRACON (SMA)
Tue 02:15:45 PM 38.1947 -84.2739 85° East 475 547 32,000 1,409 Climbing Indianapolis Center
Tue 02:16:47 PM 38.2067 -84.1050 85° East 479 551 33,000 1,512 Climbing Indianapolis Center
Tue 02:17:48 PM 38.2192 -83.9339 85° East 483 556 35,100 1,512 Climbing Indianapolis Center
Tue 02:18:50 PM 38.2303 -83.7628 85° East 485 558 36,100 927 Climbing Indianapolis Center
Tue 02:19:51 PM 38.2442 -83.5569 85° East 496 571 37,000 439 Climbing Indianapolis Center
Tue 02:20:53 PM 38.2561 -83.3789 85° East 502 578 37,000 242 Level Indianapolis Center
Tue 02:21:55 PM 38.2519 -83.2017 92° East 502 578 37,500 871 Climbing Indianapolis Center
Tue 02:22:57 PM 38.2389 -83.0244 95° East 503 579 38,800 1,366 Climbing Indianapolis Center
Tue 02:23:58 PM 38.2344 -82.8472 92° East 501 577 40,300 1,073 Climbing Indianapolis Center
Tue 02:25:00 PM 38.2403 -82.6711 88° East 500 575 41,000 339 Climbing Indianapolis Center
Tue 02:26:02 PM 38.2444 -82.4864 88° East 497 572 41,000  Level Indianapolis Center
Tue 02:27:03 PM 38.2478 -82.3106 89° East 498 573 41,000  Level Indianapolis Center
Tue 02:28:05 PM 38.2506 -82.1353 89° East 497 572 41,000  Level Indianapolis Center
Tue 02:29:07 PM 38.2533 -81.9608 89° East 498 573 41,000  Level Indianapolis Center
Tue 02:30:09 PM 38.2581 -81.7494 88° East 501 577 41,000  Level Indianapolis Center
Tue 02:31:10 PM 38.2603 -81.5728 89° East 504 580 41,000  Level Indianapolis Center
Tue 02:32:12 PM 38.2628 -81.3964 89° East 504 580 41,000  Level Indianapolis Center
Tue 02:33:14 PM 38.2642 -81.2197 89° East 505 581 41,000  Level Indianapolis Center
Tue 02:34:15 PM 38.2661 -81.0436 89° East 503 579 41,000  Level Indianapolis Center
Tue 02:35:17 PM 38.2675 -80.8672 89° East 502 578 41,000  Level Indianapolis Center
Tue 02:36:19 PM 38.2703 -80.6531 89° East 507 583 41,000  Level Indianapolis Center
Tue 02:37:20 PM 38.2717 -80.4775 89° East 499 574 41,000  Level Indianapolis Center
Tue 02:38:22 PM 38.2717 -80.3031 90° East 495 570 41,000  Level Indianapolis Center
Tue 02:39:22 PM 38.2850 -80.1444 84° East 495 570 41,000  Level Washington Center
Tue 02:40:22 PM 38.3164 -79.9769 77° East 489 563 41,000 -1,000 Level Washington Center
Tue 02:41:22 PM 38.3481 -79.7856 78° East 494 568 39,000 -2,300 Descending Washington Center
Tue 02:42:22 PM 38.3747 -79.6175 79° East 494 568 36,400 -2,800 Descending Washington Center
Tue 02:43:22 PM 38.4031 -79.4519 78° East 489 563 33,400 -3,000 Descending Washington Center
Tue 02:44:22 PM 38.4317 -79.2786 78° East 489 563 30,400 -2,650 Descending Washington Center
Tue 02:45:22 PM 38.4575 -79.1128 79° East 484 557 28,100 -1,600 Descending Washington Center
Tue 02:46:22 PM 38.4803 -78.9733 78° East 471 542 27,200 -950 Descending Washington Center
Tue 02:47:22 PM 38.5011 -78.8150 80° East 456 525 26,200 -950 Descending Washington Center
Tue 02:48:22 PM 38.5264 -78.6436 79° East 449 517 25,300 -600 Descending Washington Center
Tue 02:49:22 PM 38.5467 -78.5092 79° East 444 511 25,000 -150 Descending Washington Center
Tue 02:50:22 PM 38.5711 -78.3561 78° East 444 511 25,000 -500 Level Washington Center
Tue 02:51:22 PM 38.5956 -78.1869 79° East 439 505 24,000 -1,600 Descending Washington Center
Tue 02:52:22 PM 38.6153 -78.0389 80° East 427 491 21,800 -2,400 Descending Washington Center
Tue 02:53:22 PM 38.6369 -77.8961 79° East 419 482 19,200 -1,400 Descending Washington Center
Tue 02:54:22 PM 38.6481 -77.7528 84° East 408 470 19,000 -100 Descending Washington Center
Tue 02:55:22 PM 38.6567 -77.6094 86° East 403 464 19,000 -637 Level Washington Center
Tue 02:56:15 PM 38.6667 -77.4833 84° East 391 450 17,800 -1,682 Descending Potomac TRACON
Tue 02:57:09 PM 38.6667 -77.3667 90° East 391 450 16,000 -1,316 Descending Potomac TRACON
Tue 02:58:09 PM 38.6833 -77.2167 82° East 380 437 15,300 -1,388 Descending Potomac TRACON
Tue 02:59:10 PM 38.6833 -77.0833 90° East 367 422 13,200 -1,835 Descending Potomac TRACON
Tue 03:00:10 PM 38.7000 -76.9667 80° East 357 411 11,600 -1,500 Descending Potomac TRACON
Tue 03:01:10 PM 38.7000 -76.8333 90° East 345 397 10,200 -1,300 Descending Potomac TRACON
Tue 03:02:10 PM 38.7167 -76.7333 78° East 310 357 9,000 -1,140 Descending Potomac TRACON
Tue 03:03:11 PM 38.7500 -76.6333 67° East 298 343 7,900 -1,339 Descending Potomac TRACON
Tue 03:04:11 PM 38.8000 -76.5500 52° Northeast 297 342 6,300 -1,388 Descending Potomac TRACON
Tue 03:05:12 PM 38.8667 -76.5500 360° North 271 312 5,100 -1,200 Descending Potomac TRACON
Tue 03:06:06 PM 38.9333 -76.5833 339° North 278 320 4,000 -526 Descending Potomac TRACON
Tue 03:07:06 PM 38.9833 -76.6333 322° Northwest 266 306 4,100  Climbing Potomac TRACON
Tue 03:08:06 PM 39.0333 -76.7167 308° West 260 299 4,000 -198 Descending Potomac TRACON
Tue 03:09:07 PM 39.0667 -76.8000 297° West 258 297 3,700 -645 Descending Potomac TRACON
Tue 03:10:07 PM 39.1167 -76.8500 322° Northwest 247 284 2,700 -843 Descending Potomac TRACON
Tue 03:11:08 PM 39.1667 -76.8333 14° North 220 253 2,000 -545 Descending Potomac TRACON
Tue 03:12:08 PM 39.1833 -76.7833 67° East 163 188 1,600 -600 Descending Potomac TRACON
Tue 03:13:08 PM 39.1833 -76.7167 90° East 141 162 800 -800 Descending Potomac TRACON
Tue 03:15:00 PM 39.1667 -76.6667 11° North  Level FlightAware Approximate
Tue 03:22:00 PM 39.1754 -76.6683 11° North  Level Estimated
Tue 03:23:00 PM 39.1754 -76.6683 11° North  Level Estimated

Login

Don't have an account? Register now (free) for customized features, flight alerts, and more!